Zacatecas Airport, Mexico

2:19 AM CDT on September 21, 2017 (GMT -0500)
Gen Leobardo C Ruiz International

Weather History for MMZC - September, 2013

Change the Weather History Date:

Tuesday, September 24, 2013

  Actual Average Record
Temperature  
Mean Temperature 62 °F -  
Max Temperature 75 °F 73 °F 84 °F (2000)
Min Temperature 48 °F 50 °F 42 °F (2002)
Degree Days  
Heating Degree Days 4    
Growing Degree Days 12 (Base 50)    
Moisture  
Dew Point 48 °F    
Average Humidity 62    
Maximum Humidity 82    
Minimum Humidity 36    
Precipitation  
Precipitation 0.00 in - - ()
Sea Level Pressure  
Sea Level Pressure 30.23 in    
Wind  
Wind Speed 4 mph ()    
Max Wind Speed 15 mph    
Max Gust Speed -    
Visibility 9.9 miles    
Events      
Averages and records for this station are not official NWS values.
T = Trace of Precipitation, MM = Missing Value Source: Averaged Metar Reports

Daily Weather History Graph

Daily Weather History Graph

Search for Another Location

Airport or City:

Trip Planner

Search our weather history database for the weather conditions in past years. The results will help you decide how hot, cold, wet, or windy it might be!

Date:

Astronomy

Sep. 24, 2013 Rise Set
Actual Time 7:40 AM CDT 7:44 PM CDT
Civil Twilight 7:17 AM CDT 8:07 PM CDT
Nautical Twilight 6:51 AM CDT 8:33 PM CDT
Astronomical Twilight 6:25 AM CDT 8:59 PM CDT
Moon 11:38 PM CDT (9/24) 12:22 PM CDT (9/24)
Length of Visible Light 12h 49m
Length of Day
12h 04m
Waning Gibbous, 73% of the Moon is Illuminated
Sep 24
Waning Gibbous
Sep 26
Last Quarter
Oct 4
New
Oct 11
First Quarter
Oct 18
Full

Hourly Weather History & Observations

Time (CDT) Temp. Dew Point Humidity Pressure Visibility Wind Dir Wind Speed Gust Speed Precip Events Conditions
12:41 AM 60.8 °F 53.6 °F 77% 30.23 in 10.0 mi Calm Calm - N/A   Scattered Clouds
1:45 AM 57.2 °F 48.2 °F 72% 30.22 in 10.0 mi South 6.9 mph - N/A   Scattered Clouds
2:45 AM 55.4 °F 48.2 °F 77% 30.22 in 10.0 mi Calm Calm - N/A   Clear
3:45 AM 53.6 °F 48.2 °F 82% 30.22 in 10.0 mi Calm Calm - N/A   Clear
4:44 AM 51.8 °F 46.4 °F 82% 30.21 in 10.0 mi Calm Calm - N/A   Clear
5:50 AM 51.8 °F 44.6 °F 76% 30.22 in 8.0 mi Calm Calm - N/A   Partly Cloudy
6:50 AM 50.0 °F 44.6 °F 82% 30.23 in 10.0 mi Calm Calm - N/A   Partly Cloudy
7:40 AM 48.2 °F 42.8 °F 82% 30.25 in 10.0 mi Calm Calm - N/A   Scattered Clouds
8:41 AM 55.4 °F 48.2 °F 77% 30.26 in 10.0 mi Calm Calm - N/A   Scattered Clouds
9:42 AM 60.8 °F 50.0 °F 68% 30.28 in 10.0 mi North 3.5 mph - N/A   Scattered Clouds
10:47 AM 66.2 °F 53.6 °F 64% 30.29 in 10.0 mi NE 4.6 mph - N/A   Partly Cloudy
11:41 AM 69.8 °F 51.8 °F 53% 30.29 in 10.0 mi NE 11.5 mph - N/A   Partly Cloudy
12:50 PM 71.6 °F 50.0 °F 46% 30.28 in 10.0 mi NE 9.2 mph - N/A   Scattered Clouds
1:40 PM 73.4 °F 51.8 °F 47% 30.26 in 10.0 mi East 10.4 mph - N/A   Scattered Clouds
3:15 PM 73.4 °F 48.2 °F 41% 30.22 in 10.0 mi NE 11.5 mph - N/A   Mostly Cloudy
3:54 PM 75.2 °F 48.2 °F 38% 30.21 in 10.0 mi NE 13.8 mph - N/A   Mostly Cloudy
4:51 PM 75.2 °F 48.2 °F 38% 30.19 in 10.0 mi ENE 15.0 mph - N/A   Mostly Cloudy
5:45 PM 75.2 °F 46.4 °F 36% 30.18 in 10.0 mi NE 12.7 mph - N/A   Mostly Cloudy
6:48 PM 73.4 °F 48.2 °F 41% 30.18 in 10.0 mi NE 11.5 mph - N/A   Scattered Clouds
7:42 PM 69.8 °F 48.2 °F 46% 30.18 in 10.0 mi North 5.8 mph - N/A   Partly Cloudy
8:44 PM 62.6 °F 48.2 °F 59% 30.20 in 10.0 mi NNE 8.1 mph - N/A   Partly Cloudy
9:50 PM 60.8 °F 48.2 °F 63% 30.22 in 10.0 mi Calm Calm - N/A   Partly Cloudy
10:41 PM 57.2 °F 48.2 °F 72% 30.23 in 10.0 mi Calm Calm - N/A   Partly Cloudy
11:40 PM 55.4 °F 48.2 °F 77% 30.25 in 10.0 mi Calm Calm - N/A   Partly Cloudy